Location: Boiro
(42.6475°N, 8.8834°W)
Time: 02:47:04
(UTC+01:00)

Vanguard 1 Rocket - Pass Details

Date: 09 December 2021
Orbit: 651 x 4224 km, 34.3° (Epoch: 21 January)

Event Time Altitude Azimuth Distance (km) Brightness Sun altitude
Rises 05:57:24 0° 267° (W) 4,817 - -31.6°
Reaches altitude 10° 06:00:00 10° 264° (W) 4,165 - -31.1°
Exits shadow 06:06:14 41° 244° (WSW) 3,101 9.6 -30.0°
Maximum altitude 06:11:51 59° 188° (S) 3,090 9.9 -28.9°
Drops below altitude 10° 06:33:45 10° 117° (ESE) 7,181 12.9 -24.9°
Sets 06:40:03 0° 114° (ESE) 8,406 13.6 -23.8°
